Location: Quebec
(46.8000°N, 71.2500°W)
Time: 05:52:09
(UTC-05:00)

OTV 5 (USA 277) - Pass Details

Date: 16 October 2017
Orbit: 404 x 417 km, 43.0° (Epoch: 07 September)

Event Time Altitude Azimuth Distance (km) Brightness Sun altitude
Rises 19:29:01 0° 263° (W) 2,355 ? -16.7°
Reaches altitude 10° 19:31:11 10° 257° (WSW) 1,492 ? -17.1°
Maximum altitude 19:34:24 42° 185° (S) 608 ? -17.6°
Enters shadow 19:35:01 37° 154° (SSE) 662 ? -17.8°
